User: anonymous   Login
Location: Hawks Ness
(60.2333°N, 1.1667°W)
Time: 20:48:34
(UTC+00:00)
Language:

IRS-1D - Orbit

View from above orbital plane
View from above orbital plane
View from above satellite
View from above satellite

Ground track
Ground track

The orbit data is extracted from the following two-line orbital elements,

1 24971U 97057A   19347.42264333  .00000006  00000-0  17581-4 0  9994
2 24971  98.5420 289.1067 0054197  45.6611 314.8974 14.33976820161721
Epoch (UTC): 13 December 2019 10:08:36
Eccentricity: 0.0054197
inclination: 98.5420°
perigee height: 739 km
apogee height: 817 km
right ascension of ascending node: 289.1067°
argument of perigee: 45.6611°
revolutions per day: 14.33976820
mean anomaly at epoch: 314.8974°
orbit number at epoch: 16172

The dashed part of the orbit path shows where the satellite is in the earth's shadow,  

DLR